Location: Girdwood
(60.9430°N, 149.1660°W)
Time: 17:53:50
(UTC-08:00)

Amateur Radio Satellites - All Passes

Search period start: 24 April 2015 17:23
Search period end: 25 April 2015 17:23
Location: Girdwood, 60.9430°N, 149.1660°W

Satellite Date Start Highest point End Downlink Frequencies (MHz)
Time Altitude Azimuth
SPROUT 24 Apr 17:27:07 17:28:34 11° 322° (NW) 17:29:55 437.525
CUTE-I 24 Apr 17:27:46 17:32:24 32° 51° (NE) 17:37:06 437.470
GONETS M04 24 Apr 17:32:00 17:40:18 50° 88° (E) 17:48:44
MOZHAYETS 4 24 Apr 17:34:30 17:37:46 19° 85° (E) 17:41:06
Cubesat XI-IV 24 Apr 17:36:51 17:41:38 36° 53° (NE) 17:46:28 437.490
RS-15 24 Apr 17:39:06 17:49:57 74° 138° (SE) 18:01:16 29.354- 29.394
DANDE 24 Apr 17:53:17 17:55:57 17° 78° (ENE) 17:59:14 436.750
AO-7 24 Apr 18:01:20 18:08:59 39° 266° (W) 18:16:36 29.400- 29.500
SO-50 24 Apr 18:07:45 18:12:36 57° 6° (N) 18:17:32 436.795
ITUPSAT 1 24 Apr 18:08:55 18:12:39 23° 313° (NW) 18:16:18 437.325
ISS 24 Apr 18:10:30 18:12:21 14° 194° (SSW) 18:14:10 145.825
STARS 24 Apr 18:12:57 18:17:22 59° 294° (WNW) 18:21:45 437.465
PCSat 24 Apr 18:18:34 18:23:50 51° 231° (SW) 18:29:05 145.827
Cosmos 2504 24 Apr 18:27:33 18:34:52 27° 323° (NW) 18:41:51 435.465 / 435.565
BEESAT 24 Apr 18:40:52 18:43:50 16° 320° (NW) 18:46:42 436.000
SWISSCUBE 24 Apr 18:43:19 18:46:06 15° 321° (NW) 18:48:48 437.505
KKS-1 24 Apr 18:52:33 18:56:20 27° 307° (NW) 19:00:06 437.445
CUSAT 1 24 Apr 19:01:23 19:05:32 65° 101° (E) 19:11:13 437.405
HO-68 24 Apr 19:01:47 19:07:54 32° 38° (NE) 19:14:05 435.675
Cosmos 2499 24 Apr 19:02:46 19:10:37 39° 83° (E) 19:18:15 435.465 / 435.565
JAS-2 24 Apr 19:04:33 19:10:31 23° 281° (WNW) 19:16:05 435.910
CUTE-I 24 Apr 19:06:50 19:12:10 77° 253° (WSW) 19:17:33 437.470
M-CUBED/EXP-1 PRIME 24 Apr 19:06:57 19:08:06 11° 84° (E) 19:09:24 437.505
CUBESAT XI-V 24 Apr 19:08:12 19:11:00 16° 82° (E) 19:13:54 437.345
MOZHAYETS 4 24 Apr 19:11:04 19:15:45 85° 107° (ESE) 19:20:21
YUBILEINY 24 Apr 19:11:16 19:17:23 20° 17° (NNE) 19:23:33 435.215
Cubesat XI-IV 24 Apr 19:16:12 19:21:32 68° 255° (WSW) 19:26:53 437.490
SEEDS 24 Apr 19:17:22 19:19:20 13° 42° (NE) 19:21:24 437.485
CANX-2 24 Apr 19:23:10 19:25:48 16° 46° (NE) 19:28:31 2200.000
CINEMA 3 24 Apr 19:23:54 19:25:44 12° 36° (NE) 19:27:43 145.822/145.860
GOMX 1 24 Apr 19:26:06 19:29:13 20° 47° (NE) 19:32:32 467.674
GONETS M04 24 Apr 19:28:19 19:37:04 65° 294° (WNW) 19:45:55
CUBEBUG 2 24 Apr 19:31:54 19:32:10 10° 31° (NNE) 19:32:32 437.445
CUTE 1.7 + AOD 2 24 Apr 19:32:15 19:35:03 17° 47° (NE) 19:37:54 437.475
BRITE-PL 24 Apr 19:32:47 19:36:17 25° 53° (NE) 19:40:00 437.365/2234.400
DANDE 24 Apr 19:34:13 19:38:08 87° 107° (ESE) 19:43:33 436.750
AAUSAT CUBESAT 2 24 Apr 19:36:48 19:38:53 14° 43° (NE) 19:41:05 437.432
SO-50 24 Apr 19:48:32 19:53:30 89° 3° (N) 19:58:30 436.795
AUBIESAT-1 24 Apr 19:48:55 19:52:10 20° 93° (E) 19:55:19 437.475
STARS 24 Apr 19:50:10 19:53:06 17° 316° (NW) 19:55:58 437.465
RS-15 24 Apr 19:51:33 20:02:39 76° 349° (NNW) 20:14:16 29.354- 29.394
UWE-3 24 Apr 19:58:29 20:00:11 12° 36° (NE) 20:01:59 435.000/436.395/437.385
AO-7 24 Apr 20:02:01 20:04:48 11° 293° (WNW) 20:07:08 29.400- 29.500
PCSat 24 Apr 20:03:09 20:06:15 15° 252° (WSW) 20:09:09 145.827
DOVE 4 24 Apr 20:06:44 20:10:24 26° 52° (NE) 20:14:18 437.250
PRISM 24 Apr 20:06:58 20:10:23 25° 92° (E) 20:13:49 437.425
FUNcube-1 24 Apr 20:10:42 20:12:25 12° 37° (NE) 20:14:13 145.935
UKube-1 24 Apr 20:18:44 20:19:41 11° 34° (NE) 20:20:44 .
Cosmos 2504 24 Apr 20:26:27 20:31:55 17° 353° (N) 20:37:10 435.465 / 435.565
COMPASS 1 24 Apr 20:26:48 20:30:24 28° 56° (NE) 20:34:03 437.405
STRAND 1 24 Apr 20:27:03 20:31:38 32° 93° (E) 20:36:14 437.568
ZACube-1 24 Apr 20:34:24 20:37:04 16° 43° (NE) 20:39:50 437.345
Oscar 11 24 Apr 20:35:21 20:38:32 21° 50° (NE) 20:41:49 145.826/435.025
HUMSAT D 24 Apr 20:39:08 20:40:26 11° 37° (NE) 20:41:49 437.325/437.525
M-CUBED/EXP-1 PRIME 24 Apr 20:39:46 20:44:11 50° 107° (ESE) 20:48:16 437.505
CUBESAT XI-V 24 Apr 20:44:43 20:49:21 71° 105° (ESE) 20:53:58 437.345
CUSAT 1 24 Apr 20:44:46 20:48:52 32° 311° (NW) 20:54:08 437.405
HO-68 24 Apr 20:47:39 20:54:50 75° 62° (ENE) 21:02:04 435.675
MOZHAYETS 4 24 Apr 20:48:46 20:52:33 25° 308° (NW) 20:56:17
CUTE-I 24 Apr 20:49:16 20:53:12 20° 276° (W) 20:57:01 437.470
SEEDS 24 Apr 20:50:10 20:54:15 44° 63° (ENE) 20:58:21 437.485
DELFI C3 24 Apr 20:52:36 20:55:35 20° 51° (NE) 20:58:38 145.870
AISAT 24 Apr 20:54:14 20:55:48 12° 36° (NE) 20:57:28 437.250
Cosmos 2499 24 Apr 20:54:24 21:03:18 81° 287° (WNW) 21:11:46 435.465 / 435.565
CANX-2 24 Apr 20:56:46 21:01:01 58° 67° (ENE) 21:05:17 2200.000
CINEMA 3 24 Apr 20:57:42 21:01:47 36° 58° (ENE) 21:06:06 145.822/145.860
Cubesat XI-IV 24 Apr 20:59:08 21:02:43 18° 278° (W) 21:06:10 437.490
GOMX 1 24 Apr 21:02:24 21:06:42 73° 70° (ENE) 21:11:18 467.674
CUBEBUG 2 24 Apr 21:03:45 21:07:32 28° 54° (NE) 21:11:30 437.445
CUTE 1.7 + AOD 2 24 Apr 21:06:01 21:10:18 63° 68° (ENE) 21:14:37 437.475
DX 1 24 Apr 21:07:34 21:10:35 19° 47° (NE) 21:13:41 434.975-435.025
YUBILEINY 24 Apr 21:09:29 21:17:29 37° 48° (NE) 21:25:29 435.215
AAUSAT CUBESAT 2 24 Apr 21:09:37 21:13:41 47° 64° (ENE) 21:17:47 437.432
BRITE-PL 24 Apr 21:10:16 21:14:28 74° 255° (WSW) 21:18:58 437.365/2234.400
DANDE 24 Apr 21:18:45 21:22:22 24° 317° (NW) 21:26:52 436.750
Cosmos 2491 24 Apr 21:19:57 21:22:39 12° 55° (NE) 21:25:44 435.465 / 435.565
AUBIESAT-1 24 Apr 21:23:07 21:27:39 88° 297° (WNW) 21:31:47 437.475
GONETS M04 24 Apr 21:28:32 21:36:00 29° 323° (NW) 21:43:23
ESTCUBE 1 24 Apr 21:29:12 21:31:17 13° 38° (NE) 21:33:27 437.505/2401.250
SO-50 24 Apr 21:29:16 21:33:45 34° 231° (SW) 21:38:12 436.795
UWE-3 24 Apr 21:31:32 21:35:35 35° 58° (ENE) 21:39:48 435.000/436.395/437.385
PRISM 24 Apr 21:42:08 21:46:14 63° 294° (WNW) 21:50:18 437.425
50 SAT 24 Apr 21:43:24 21:46:06 18° 49° (NE) 21:48:53 437.505
DOVE 4 24 Apr 21:43:25 21:47:47 77° 255° (WSW) 21:52:28 437.250
FUNcube-1 24 Apr 21:43:36 21:47:39 36° 59° (ENE) 21:51:50 145.935
UKube-1 24 Apr 21:50:54 21:54:43 31° 56° (NE) 21:58:34 .
COMPASS 1 24 Apr 22:01:35 22:05:50 66° 257° (WSW) 22:10:07 437.405
RS-15 24 Apr 22:04:48 22:16:03 80° 20° (NNE) 22:27:52 29.354- 29.394
STRAND 1 24 Apr 22:06:10 22:11:14 64° 295° (WNW) 22:16:17 437.568
ZACube-1 24 Apr 22:08:17 22:12:35 53° 64° (ENE) 22:17:02 437.345
Oscar 11 24 Apr 22:09:49 22:14:11 79° 70° (ENE) 22:18:36 145.826/435.025
VELOX 1 24 Apr 22:10:12 22:13:56 28° 53° (NE) 22:17:42 145.980
HUMSAT D 24 Apr 22:11:14 22:15:08 35° 59° (ENE) 22:19:06 437.325/437.525
M-CUBED/EXP-1 PRIME 24 Apr 22:14:43 22:19:00 39° 310° (NW) 22:22:57 437.505
CUBEBUG 1 24 Apr 22:18:53 22:22:04 20° 49° (NE) 22:25:18 437.445
CUBESAT XI-V 24 Apr 22:22:32 22:26:30 29° 306° (NW) 22:30:25 437.345
Cosmos 2504 24 Apr 22:23:07 22:29:16 21° 25° (NNE) 22:35:16 435.465 / 435.565
SEEDS 24 Apr 22:26:06 22:30:08 38° 264° (W) 22:34:11 437.485
DELFI C3 24 Apr 22:26:08 22:30:15 86° 74° (ENE) 22:34:22 145.870
AISAT 24 Apr 22:27:20 22:31:20 35° 58° (ENE) 22:35:24 437.250
CUSAT 1 24 Apr 22:30:53 22:33:48 14° 339° (NNW) 22:37:02 437.405
CANX-2 24 Apr 22:33:27 22:37:16 29° 268° (W) 22:41:03 2200.000
CINEMA 3 24 Apr 22:34:31 22:38:53 53° 261° (W) 22:43:30 145.822/145.860
HO-68 24 Apr 22:36:29 22:43:11 39° 266° (W) 22:49:52 435.675
CUBEBUG 2 24 Apr 22:39:26 22:43:54 74° 256° (WSW) 22:48:33 437.445
GOMX 1 24 Apr 22:41:55 22:45:26 23° 273° (W) 22:49:04 467.674
DX 1 24 Apr 22:41:55 22:46:14 71° 68° (ENE) 22:50:35 434.975-435.025
CUTE 1.7 + AOD 2 24 Apr 22:42:54 22:46:35 26° 269° (W) 22:50:16 437.475
AAUSAT CUBESAT 2 24 Apr 22:45:33 22:49:28 34° 265° (W) 22:53:22 437.432
Cosmos 2499 24 Apr 22:49:57 22:57:48 34° 313° (NW) 23:05:14 435.465 / 435.565
BRITE-PL 24 Apr 22:51:26 22:53:59 15° 279° (W) 22:56:31 437.365/2234.400
AUBIESAT-1 24 Apr 22:58:14 23:01:58 25° 319° (NW) 23:05:27 437.475
ESTCUBE 1 24 Apr 23:02:58 23:07:10 40° 60° (ENE) 23:11:26 437.505/2401.250
DANDE 24 Apr 23:06:03 23:08:01 12° 345° (NNW) 23:10:06 436.750
YUBILEINY 24 Apr 23:06:44 23:15:37 88° 75° (ENE) 23:24:23 435.215
UWE-3 24 Apr 23:07:39 23:12:00 53° 260° (W) 23:16:32 435.000/436.395/437.385
Cosmos 2491 24 Apr 23:09:15 23:16:54 37° 81° (E) 23:24:43 435.465 / 435.565
O/OREOS (USA 219) 24 Apr 23:14:03 23:16:53 17° 103° (ESE) 23:19:49 437.305
TISAT 1 24 Apr 23:15:46 23:18:40 19° 48° (NE) 23:21:40 437.305
50 SAT 24 Apr 23:16:18 23:20:20 72° 70° (ENE) 23:24:25 437.505
TIGRISAT 24 Apr 23:18:17 23:21:08 16° 82° (E) 23:24:06 435.000
PRISM 24 Apr 23:18:24 23:21:04 17° 314° (NW) 23:23:39 437.425
FUNcube-1 24 Apr 23:19:35 23:23:54 51° 261° (W) 23:28:21 145.935
UNISAT 6 24 Apr 23:22:04 23:25:08 17° 83° (E) 23:28:19 437.425
DOVE 4 24 Apr 23:23:36 23:26:30 17° 278° (W) 23:29:23 437.250
UKube-1 24 Apr 23:26:24 23:30:42 58° 257° (WSW) 23:35:00 .
BEESAT 24 Apr 23:29:35 23:31:27 12° 33° (NNE) 23:33:24 436.000
GONETS M04 24 Apr 23:30:46 23:36:37 19° 355° (N) 23:42:28
SWISSCUBE 24 Apr 23:31:40 23:33:45 13° 34° (NE) 23:35:56 437.505
NANOSAT C BR1 24 Apr 23:31:43 23:32:23 10° 78° (ENE) 23:33:13 145.865
POPSAT HIP 1 24 Apr 23:34:07 23:35:15 11° 79° (E) 23:36:33 437.405
COMPASS 1 24 Apr 23:40:07 23:42:25 14° 279° (W) 23:44:35 437.405
SPROUT 24 Apr 23:42:02 23:45:45 29° 56° (NE) 23:49:31 437.525
ZACube-1 24 Apr 23:45:08 23:49:11 33° 267° (W) 23:53:19 437.345
VELOX 1 24 Apr 23:45:47 23:50:12 71° 255° (WSW) 23:54:38 145.980
STRAND 1 24 Apr 23:45:56 23:49:43 21° 317° (NW) 23:53:25 437.568
HUMSAT D 24 Apr 23:46:38 23:50:48 50° 260° (W) 23:55:03 437.325/437.525
Oscar 11 24 Apr 23:47:29 23:50:56 22° 272° (W) 23:54:19 145.826/435.025
M-CUBED/EXP-1 PRIME 24 Apr 23:50:05 23:52:51 16° 332° (NNW) 23:55:29 437.505
CUBEBUG 1 24 Apr 23:53:34 23:57:54 80° 70° (ENE) 00:02:16 437.445
CUBESAT XI-V 25 Apr 00:02:00 00:02:41 10° 328° (NNW) 00:03:15 437.345
POLYITAN 1 25 Apr 00:02:10 00:05:09 18° 86° (E) 00:08:13 437.675
BUGSAT 1 25 Apr 00:02:38 00:04:37 13° 83° (E) 00:06:45 437.445
DELFI C3 25 Apr 00:03:01 00:05:59 19° 273° (W) 00:08:52 145.870
ANTELSAT 25 Apr 00:03:31 00:07:47 32° 93° (E) 00:12:02 437.575/2403.000
AISAT 25 Apr 00:03:32 00:07:51 52° 259° (W) 00:12:12 437.250
DUCHIFAT 1 25 Apr 00:04:15 00:07:12 18° 86° (E) 00:10:14 145.980
CINEMA 3 25 Apr 00:15:33 00:17:20 12° 284° (WNW) 00:18:58 145.822/145.860
CUSAT 1 25 Apr 00:17:14 00:19:28 12° 7° (N) 00:21:54 437.405
RS-15 25 Apr 00:17:21 00:28:28 64° 229° (SW) 00:40:03 29.354- 29.394
Cosmos 2504 25 Apr 00:17:27 00:25:26 44° 55° (NE) 00:32:55 435.465 / 435.565
CUBEBUG 2 25 Apr 00:18:35 00:21:30 16° 278° (W) 00:24:21 437.445
DX 1 25 Apr 00:19:22 00:22:57 24° 269° (W) 00:26:30 434.975-435.025
QB50P1 25 Apr 00:20:54 00:24:25 24° 90° (E) 00:27:57 145.935-145.965
HO-68 25 Apr 00:31:05 00:33:22 11° 292° (WNW) 00:35:17 435.675
ITUPSAT 1 25 Apr 00:33:18 00:37:01 23° 48° (NE) 00:40:47 437.325
AUBIESAT-1 25 Apr 00:33:41 00:35:29 12° 341° (NNW) 00:37:11 437.475
AIST 1 25 Apr 00:39:39 00:41:13 12° 78° (ENE) 00:42:55
ESTCUBE 1 25 Apr 00:39:43 00:44:05 45° 261° (W) 00:48:26 437.505/2401.250
QB50P2 25 Apr 00:46:29 00:50:30 37° 96° (E) 00:54:32 145.880/145.840
UWE-3 25 Apr 00:47:58 00:49:44 12° 283° (WNW) 00:51:20 435.000/436.395/437.385
Cosmos 2499 25 Apr 00:48:21 00:54:05 19° 343° (NNW) 00:59:30 435.465 / 435.565
TISAT 1 25 Apr 00:49:42 00:53:53 73° 69° (ENE) 00:58:08 437.305
O/OREOS (USA 219) 25 Apr 00:51:03 00:55:37 70° 124° (ESE) 01:00:10 437.305
DANDE 25 Apr 00:52:14 00:54:12 12° 13° (NNE) 00:56:23 436.750
50 SAT 25 Apr 00:52:26 00:55:36 22° 271° (W) 00:58:46 437.505
TIGRISAT 25 Apr 00:54:04 00:58:49 68° 105° (ESE) 01:03:32 435.000
UNISAT 6 25 Apr 00:58:01 01:02:47 74° 105° (ESE) 01:07:30 437.425
FUNcube-1 25 Apr 00:59:59 01:01:26 11° 283° (WNW) 01:02:42 145.935
BEESAT 25 Apr 01:03:52 01:08:07 33° 55° (NE) 01:12:25 436.000
YUBILEINY 25 Apr 01:04:01 01:11:39 34° 281° (W) 01:19:07 435.215
Cosmos 2491 25 Apr 01:04:19 01:13:06 83° 286° (WNW) 01:22:00 435.465 / 435.565
NANOSAT C BR1 25 Apr 01:05:10 01:09:21 49° 100° (E) 01:13:33 145.865
UKube-1 25 Apr 01:05:54 01:07:50 12° 279° (W) 01:09:37 .
SWISSCUBE 25 Apr 01:06:09 01:10:29 36° 56° (NE) 01:14:51 437.505
POPSAT HIP 1 25 Apr 01:07:59 01:12:13 52° 101° (ESE) 01:16:26 437.405
KKS-1 25 Apr 01:13:15 01:15:45 15° 41° (NE) 01:18:20 437.445
SPROUT 25 Apr 01:17:22 01:21:37 62° 257° (WSW) 01:25:55 437.525
VELOX 1 25 Apr 01:24:57 01:27:38 15° 277° (W) 01:30:12 145.980
M-CUBED/EXP-1 PRIME 25 Apr 01:25:51 01:26:08 10° 355° (N) 01:26:23 437.505
HUMSAT D 25 Apr 01:26:42 01:27:42 11° 283° (WNW) 01:28:32 437.325/437.525
GONETS M04 25 Apr 01:30:47 01:37:33 23° 27° (NNE) 01:44:25
CUBEBUG 1 25 Apr 01:31:28 01:34:50 21° 272° (W) 01:38:09 437.445
BUGSAT 1 25 Apr 01:36:50 01:40:57 67° 104° (ESE) 01:45:06 437.445
POLYITAN 1 25 Apr 01:37:23 01:41:44 87° 103° (ESE) 01:46:05 437.675
DUCHIFAT 1 25 Apr 01:39:23 01:43:41 87° 107° (ESE) 01:48:00 145.980
ANTELSAT 25 Apr 01:40:11 01:44:53 60° 294° (WNW) 01:49:32 437.575/2403.000
AISAT 25 Apr 01:44:10 01:45:35 11° 281° (WNW) 01:46:50 437.250
QB50P1 25 Apr 01:56:26 02:00:43 70° 291° (WNW) 02:05:00 145.935-145.965
CUSAT 1 25 Apr 02:00:31 02:04:56 19° 33° (NNE) 02:10:06 437.405
STARS 25 Apr 02:08:20 02:11:45 22° 50° (NE) 02:15:13 437.465
ITUPSAT 1 25 Apr 02:09:34 02:14:23 81° 68° (ENE) 02:19:13 437.325
Cosmos 2504 25 Apr 02:11:13 02:19:37 74° 262° (W) 02:27:21 435.465 / 435.565
AIST 1 25 Apr 02:13:49 02:18:03 59° 99° (E) 02:22:17
Oscar 19 25 Apr 02:15:48 02:19:25 19° 83° (E) 02:23:08 437.125/150
QB50P2 25 Apr 02:22:24 02:26:31 45° 298° (WNW) 02:30:39 145.880/145.840
TISAT 1 25 Apr 02:26:49 02:30:10 22° 271° (W) 02:33:29 437.305
RS-15 25 Apr 02:29:57 02:38:57 27° 255° (WSW) 02:47:55 29.354- 29.394
O/OREOS (USA 219) 25 Apr 02:31:06 02:35:23 37° 327° (NNW) 02:39:39 437.305
TIGRISAT 25 Apr 02:31:08 02:35:18 31° 305° (NW) 02:39:25 435.000
UNISAT 6 25 Apr 02:35:10 02:39:16 29° 306° (NW) 02:43:17 437.425
DANDE 25 Apr 02:35:24 02:40:00 21° 39° (NE) 02:45:31 436.750
BEESAT 25 Apr 02:41:00 02:45:47 64° 256° (WSW) 02:50:34 436.000
NANOSAT C BR1 25 Apr 02:41:12 02:45:07 35° 301° (WNW) 02:49:01 145.865
SWISSCUBE 25 Apr 02:43:28 02:48:12 58° 257° (WSW) 02:52:58 437.505
POPSAT HIP 1 25 Apr 02:44:05 02:47:59 34° 302° (WNW) 02:51:51 437.405
Cosmos 2499 25 Apr 02:45:49 02:51:10 18° 14° (NNE) 02:56:22 435.465 / 435.565
KKS-1 25 Apr 02:47:15 02:51:32 49° 63° (ENE) 02:55:53 437.445
ITAMSAT 1 25 Apr 02:49:36 02:52:04 14° 78° (ENE) 02:54:42 435.822/435.867
SPROUT 25 Apr 02:56:35 02:58:41 13° 279° (W) 03:00:38 437.525
M-CUBED/EXP-1 PRIME 25 Apr 02:57:32 02:59:16 12° 18° (NNE) 03:01:01 437.505
YUBILEINY 25 Apr 03:03:28 03:05:44 11° 307° (NW) 03:07:35 435.215
Cosmos 2491 25 Apr 03:03:30 03:11:25 35° 314° (NW) 03:19:19 435.465 / 435.565
MOZHAYETS 4 25 Apr 03:11:13 03:14:03 17° 43° (NE) 03:16:58
BUGSAT 1 25 Apr 03:12:42 03:16:11 27° 305° (NW) 03:19:39 437.445
POLYITAN 1 25 Apr 03:13:49 03:17:15 23° 308° (NW) 03:20:37 437.675
Gurwin Techsat 1B 25 Apr 03:14:41 03:18:21 19° 83° (E) 03:22:07 435.225
DUCHIFAT 1 25 Apr 03:15:43 03:19:06 23° 308° (NW) 03:22:25 145.980
ANTELSAT 25 Apr 03:17:39 03:20:54 18° 316° (NW) 03:24:05 437.575/2403.000
GONETS M04 25 Apr 03:28:34 03:37:07 48° 57° (ENE) 03:45:39
QB50P1 25 Apr 03:33:00 03:36:00 18° 312° (NW) 03:38:55 145.935-145.965
AUBIESAT-1 25 Apr 03:39:11 03:41:45 15° 27° (NNE) 03:44:19 437.475
CUSAT 1 25 Apr 03:43:09 03:49:25 43° 56° (ENE) 03:56:57 437.405
STARS 25 Apr 03:43:18 03:47:43 87° 71° (ENE) 03:52:12 437.465
ITUPSAT 1 25 Apr 03:48:56 03:52:52 24° 271° (W) 03:56:44 437.325
AIST 1 25 Apr 03:52:16 03:56:03 28° 301° (WNW) 03:59:48
Oscar 19 25 Apr 03:54:29 03:59:43 74° 105° (ESE) 04:04:57 437.125/150
AO-7 25 Apr 03:58:04 04:02:09 15° 71° (ENE) 04:06:37 29.400- 29.500
QB50P2 25 Apr 03:59:22 04:01:34 14° 318° (NW) 04:03:41 145.880/145.840
Cosmos 2504 25 Apr 04:05:18 04:11:48 25° 287° (WNW) 04:17:45 435.465 / 435.565
BEESAT 3 25 Apr 04:07:29 04:09:47 15° 119° (ESE) 04:12:12 437.485
BEESAT 2 25 Apr 04:08:26 04:10:26 14° 117° (ESE) 04:12:35 435.950
TIGRISAT 25 Apr 04:09:18 04:10:49 11° 327° (NNW) 04:12:14 435.000
O/OREOS (USA 219) 25 Apr 04:12:25 04:15:59 22° 351° (N) 04:19:30 437.305
UNISAT 6 25 Apr 04:13:32 04:14:45 11° 328° (NNW) 04:15:53 437.425
JAS-2 25 Apr 04:16:19 04:20:18 17° 72° (ENE) 04:24:14 435.910
DANDE 25 Apr 04:18:26 04:24:40 51° 61° (ENE) 04:32:26 436.750
NANOSAT C BR1 25 Apr 04:18:34 04:19:57 11° 323° (NW) 04:21:13 145.865
POPSAT HIP 1 25 Apr 04:21:36 04:22:48 11° 323° (NW) 04:23:55 437.405
BEESAT 25 Apr 04:21:50 04:24:39 15° 279° (W) 04:27:19 436.000
KKS-1 25 Apr 04:24:12 04:28:20 36° 264° (W) 04:32:30 437.445
SWISSCUBE 25 Apr 04:24:42 04:27:11 14° 280° (W) 04:29:30 437.505
ITAMSAT 1 25 Apr 04:27:45 04:32:51 54° 101° (ESE) 04:37:57 435.822/435.867
M-CUBED/EXP-1 PRIME 25 Apr 04:29:01 04:32:48 23° 39° (NE) 04:36:32 437.505
STRAND 1 25 Apr 04:39:10 04:41:27 13° 30° (NNE) 04:43:48 437.568
Cosmos 2499 25 Apr 04:40:19 04:47:32 32° 45° (NE) 04:54:21 435.465 / 435.565
MOZHAYETS 4 25 Apr 04:45:56 04:50:28 53° 64° (ENE) 04:55:01
CUBESAT XI-V 25 Apr 04:46:27 04:48:55 15° 41° (NE) 04:51:29 437.345
HORYU 2 25 Apr 04:49:37 04:53:12 23° 89° (E) 04:56:50 437.375
Gurwin Techsat 1B 25 Apr 04:53:59 04:59:20 73° 105° (ESE) 05:04:40 435.225
AIST 2 25 Apr 05:04:35 05:07:12 16° 119° (ESE) 05:09:56 435.215
Cosmos 2491 25 Apr 05:05:34 05:11:39 20° 345° (NNW) 05:17:42 435.465 / 435.565
AUBIESAT-1 25 Apr 05:11:11 05:15:30 34° 47° (NE) 05:19:43 437.475
STARS 25 Apr 05:21:29 05:24:49 20° 273° (W) 05:28:05 437.465
GONETS M04 25 Apr 05:25:45 05:34:34 69° 264° (W) 05:43:18
CUSAT 1 25 Apr 05:25:52 05:32:39 76° 257° (WSW) 05:40:47 437.405
PRISM 25 Apr 05:33:01 05:35:51 18° 47° (NE) 05:38:43 437.425
Oscar 19 25 Apr 05:34:10 05:38:47 32° 308° (NW) 05:43:21 437.125/150
BEESAT 3 25 Apr 05:43:03 05:47:05 54° 139° (SE) 05:51:08 437.485
BEESAT 2 25 Apr 05:43:45 05:47:46 50° 138° (SE) 05:51:49 435.950
AO-7 25 Apr 05:49:39 05:57:35 46° 98° (E) 06:05:33 29.400- 29.500
O/OREOS (USA 219) 25 Apr 05:53:06 05:56:48 24° 16° (NNE) 06:00:30 437.305
JAS-2 25 Apr 06:00:28 06:07:16 56° 98° (E) 06:13:14 435.910
DANDE 25 Apr 06:01:43 06:08:10 60° 261° (W) 06:16:07 436.750
M-CUBED/EXP-1 PRIME 25 Apr 06:02:14 06:07:04 69° 60° (ENE) 06:11:48 437.505
ITAMSAT 1 25 Apr 06:07:28 06:12:20 41° 303° (WNW) 06:17:10 435.822/435.867
STRAND 1 25 Apr 06:14:52 06:19:23 33° 53° (NE) 06:23:57 437.568
CUBESAT XI-V 25 Apr 06:21:02 06:25:27 46° 62° (ENE) 06:29:54 437.345
MOZHAYETS 4 25 Apr 06:23:39 06:27:56 35° 266° (W) 06:32:12
HORYU 2 25 Apr 06:25:50 06:30:24 79° 291° (WNW) 06:34:54 437.375
Cosmos 2499 25 Apr 06:33:53 06:42:08 81° 73° (ENE) 06:49:42 435.465 / 435.565
Gurwin Techsat 1B 25 Apr 06:34:18 06:39:03 33° 307° (NW) 06:43:45 435.225
AIST 2 25 Apr 06:40:52 06:45:05 57° 140° (SE) 06:49:20 435.215
AUBIESAT-1 25 Apr 06:45:13 06:50:02 71° 248° (WSW) 06:54:46 437.475
Cosmos 2491 25 Apr 07:06:31 07:12:42 20° 18° (NNE) 07:19:00 435.465 / 435.565
PRISM 25 Apr 07:06:34 07:10:44 71° 68° (ENE) 07:14:53 437.425
CUSAT 1 25 Apr 07:09:09 07:14:48 27° 276° (W) 07:21:01 437.405
CUTE-I 25 Apr 07:13:51 07:17:51 21° 85° (E) 07:21:55 437.470
Oscar 19 25 Apr 07:14:27 07:16:50 13° 330° (NNW) 07:19:08 437.125/150
BEESAT 3 25 Apr 07:21:01 07:25:08 61° 341° (NNW) 07:29:15 437.485
BEESAT 2 25 Apr 07:21:43 07:25:52 64° 340° (NNW) 07:30:02 435.950
Cubesat XI-IV 25 Apr 07:23:13 07:27:30 24° 88° (E) 07:31:51 437.490
GONETS M04 25 Apr 07:23:15 07:30:01 25° 289° (WNW) 07:36:33
O/OREOS (USA 219) 25 Apr 07:32:45 07:37:12 50° 41° (NE) 07:41:36 437.305
M-CUBED/EXP-1 PRIME 25 Apr 07:37:56 07:42:15 31° 260° (W) 07:46:30 437.505
AO-7 25 Apr 07:42:42 07:50:59 72° 303° (WNW) 07:59:16 29.400- 29.500
JAS-2 25 Apr 07:45:41 07:52:23 50° 304° (NW) 07:58:16 435.910
DANDE 25 Apr 07:45:50 07:50:38 20° 280° (W) 07:55:52 436.750
ITAMSAT 1 25 Apr 07:47:42 07:50:45 16° 326° (NW) 07:53:42 435.822/435.867
STRAND 1 25 Apr 07:53:14 07:58:20 70° 254° (WSW) 08:03:29 437.568
CUBESAT XI-V 25 Apr 07:58:38 08:03:01 40° 263° (W) 08:07:24 437.345
HORYU 2 25 Apr 08:03:03 08:06:30 21° 312° (NW) 08:09:52 437.375
Gurwin Techsat 1B 25 Apr 08:15:07 08:17:43 14° 330° (NNW) 08:20:14 435.225
AIST 2 25 Apr 08:19:27 08:23:44 61° 342° (NNW) 08:28:01 435.215
AUBIESAT-1 25 Apr 08:22:18 08:25:35 18° 268° (W) 08:28:45 437.475
Cosmos 2499 25 Apr 08:27:29 08:34:40 36° 279° (W) 08:41:16 435.465 / 435.565
PRISM 25 Apr 08:43:17 08:46:39 23° 269° (W) 08:49:57 437.425
TIGRISAT 25 Apr 08:52:34 08:54:59 14° 39° (NE) 08:57:29 435.000
CUTE-I 25 Apr 08:53:26 08:58:48 82° 107° (ESE) 09:04:09 437.470
GOMX 1 25 Apr 08:54:22 08:56:44 13° 79° (ENE) 08:59:21 467.674
UNISAT 6 25 Apr 08:56:26 08:59:02 15° 40° (NE) 09:01:44 437.425
BEESAT 3 25 Apr 08:59:34 09:03:37 49° 4° (N) 09:07:38 437.485
BEESAT 2 25 Apr 09:00:22 09:04:27 49° 3° (N) 09:08:31 435.950
Cubesat XI-IV 25 Apr 09:02:58 09:08:20 88° 293° (WNW) 09:13:42 437.490
BRITE-PL 25 Apr 09:04:06 09:07:41 20° 85° (E) 09:11:33 437.365/2234.400
POPSAT HIP 1 25 Apr 09:04:14 09:04:29 10° 35° (NE) 09:04:50 437.405
Cosmos 2491 25 Apr 09:04:44 09:12:48 38° 49° (NE) 09:20:57 435.465 / 435.565
PCSat 25 Apr 09:11:56 09:15:13 17° 109° (ESE) 09:18:41 145.827
O/OREOS (USA 219) 25 Apr 09:12:19 09:16:38 44° 243° (WSW) 09:20:54 437.305
BUGSAT 1 25 Apr 09:30:13 09:31:02 11° 38° (NE) 09:31:56 437.445
JAS-2 25 Apr 09:30:55 09:36:05 22° 329° (NNW) 09:40:47 435.910
POLYITAN 1 25 Apr 09:31:28 09:33:39 14° 42° (NE) 09:35:57 437.675
DOVE 4 25 Apr 09:32:10 09:35:34 18° 83° (E) 09:39:11 437.250
DUCHIFAT 1 25 Apr 09:33:01 09:35:09 14° 42° (NE) 09:37:22 145.980
STRAND 1 25 Apr 09:35:07 09:38:33 17° 277° (W) 09:41:52 437.568
AO-7 25 Apr 09:35:35 09:42:51 35° 328° (NNW) 09:50:05 29.400- 29.500
COMPASS 1 25 Apr 09:36:23 09:38:08 12° 80° (E) 09:40:01 437.405
ANTELSAT 25 Apr 09:36:59 09:40:37 23° 50° (NE) 09:44:22 437.575/2403.000
QB50P1 25 Apr 09:49:28 09:52:12 17° 46° (NE) 09:55:00 145.935-145.965
HO-68 25 Apr 09:51:52 09:58:04 31° 89° (E) 10:04:20 435.675
AIST 2 25 Apr 09:58:35 10:02:49 50° 5° (N) 10:07:01 435.215
SEEDS 25 Apr 10:00:21 10:03:38 21° 88° (E) 10:06:58 437.485
CANX-2 25 Apr 10:07:57 10:11:44 29° 92° (E) 10:15:32 2200.000
QB50P2 25 Apr 10:14:34 10:17:56 24° 52° (NE) 10:21:22 145.880/145.840
CUTE 1.7 + AOD 2 25 Apr 10:17:06 10:20:59 32° 93° (E) 10:24:51 437.475
AAUSAT CUBESAT 2 25 Apr 10:18:18 10:21:38 22° 89° (E) 10:25:00 437.432
CINEMA 3 25 Apr 10:18:56 10:22:50 23° 87° (E) 10:26:52 145.822/145.860
CUBEBUG 2 25 Apr 10:21:05 10:23:51 16° 81° (E) 10:26:47 437.445
Cosmos 2499 25 Apr 10:23:18 10:25:20 11° 304° (NW) 10:26:58 435.465 / 435.565
TIGRISAT 25 Apr 10:26:23 10:30:43 43° 61° (ENE) 10:35:11 435.000
YUBILEINY 25 Apr 10:26:36 10:33:04 24° 71° (ENE) 10:39:46 435.215
UNISAT 6 25 Apr 10:30:28 10:34:52 46° 62° (ENE) 10:39:24 437.425
Oscar 19 25 Apr 10:30:56 10:31:14 10° 20° (NNE) 10:31:38 437.125/150
GOMX 1 25 Apr 10:31:07 10:35:59 54° 100° (E) 10:41:08 467.674
NANOSAT C BR1 25 Apr 10:32:34 10:36:13 29° 56° (NE) 10:39:56 145.865
AIST 1 25 Apr 10:33:35 10:35:40 13° 44° (NE) 10:37:52
CUTE-I 25 Apr 10:33:53 10:38:30 30° 310° (NW) 10:43:05 437.470
POPSAT HIP 1 25 Apr 10:35:31 10:39:14 30° 57° (ENE) 10:43:01 437.405
BEESAT 3 25 Apr 10:37:49 10:41:59 81° 28° (NNE) 10:46:07 437.485
BEESAT 2 25 Apr 10:38:45 10:42:57 77° 26° (NNE) 10:47:06 435.950
BRITE-PL 25 Apr 10:42:03 10:46:55 82° 106° (ESE) 10:52:12 437.365/2234.400
Cubesat XI-IV 25 Apr 10:43:30 10:47:58 28° 312° (NW) 10:52:23 437.490
UWE-3 25 Apr 10:47:35 10:51:01 20° 85° (E) 10:54:32 435.000/436.395/437.385
PCSat 25 Apr 10:52:25 10:57:42 56° 131° (SE) 11:03:03 145.827
FUNcube-1 25 Apr 10:58:04 11:01:24 20° 85° (E) 11:04:49 145.935
BUGSAT 1 25 Apr 11:01:51 11:05:31 35° 60° (ENE) 11:09:14 437.445
Cosmos 2491 25 Apr 11:01:59 11:10:54 90° 257° (WSW) 11:19:47 435.465 / 435.565
POLYITAN 1 25 Apr 11:04:39 11:08:44 48° 63° (ENE) 11:12:53 437.675
UKube-1 25 Apr 11:04:54 11:06:59 13° 82° (E) 11:09:11 .
DUCHIFAT 1 25 Apr 11:06:05 11:10:07 47° 63° (ENE) 11:14:14 145.980
DOVE 4 25 Apr 11:09:12 11:14:10 73° 104° (ESE) 11:19:23 437.250
COMPASS 1 25 Apr 11:10:34 11:14:48 60° 102° (ESE) 11:18:59 437.405
ANTELSAT 25 Apr 11:12:15 11:16:53 85° 74° (ENE) 11:21:38 437.575/2403.000
JAS-2 25 Apr 11:15:09 11:18:51 15° 355° (N) 11:22:22 435.910
HUMSAT D 25 Apr 11:21:09 11:23:58 17° 84° (E) 11:26:52 437.325/437.525
ZACube-1 25 Apr 11:23:00 11:27:02 29° 91° (E) 11:31:06 437.345
Oscar 11 25 Apr 11:23:10 11:27:19 40° 97° (E) 11:31:26 145.826/435.025
QB50P1 25 Apr 11:23:13 11:27:24 64° 67° (ENE) 11:31:39 145.935-145.965
AO-7 25 Apr 11:27:21 11:33:39 25° 355° (N) 11:39:55 29.400- 29.500
VELOX 1 25 Apr 11:27:28 11:29:20 13° 80° (E) 11:31:22 145.980
DELFI C3 25 Apr 11:30:46 11:34:33 36° 96° (E) 11:38:19 145.870
Gurwin Techsat 1B 25 Apr 11:32:18 11:33:22 11° 20° (NNE) 11:34:30 435.225
SEEDS 25 Apr 11:35:41 11:39:59 78° 290° (WNW) 11:44:14 437.485
AIST 2 25 Apr 11:37:25 11:41:45 84° 25° (NNE) 11:46:02 435.215
HO-68 25 Apr 11:39:31 11:46:47 89° 112° (ESE) 11:54:01 435.675
CANX-2 25 Apr 11:43:43 11:47:58 57° 294° (WNW) 11:52:10 2200.000
AISAT 25 Apr 11:44:34 11:47:28 17° 85° (E) 11:50:29 437.250
QB50P2 25 Apr 11:49:11 11:53:26 83° 253° (WSW) 11:57:45 145.880/145.840
CUTE 1.7 + AOD 2 25 Apr 11:52:55 11:57:09 52° 295° (WNW) 12:01:19 437.475
AAUSAT CUBESAT 2 25 Apr 11:53:30 11:57:44 73° 290° (WNW) 12:01:55 437.432
CINEMA 3 25 Apr 11:55:43 12:00:39 86° 286° (WNW) 12:05:42 145.822/145.860
DX 1 25 Apr 11:56:23 12:00:18 32° 95° (E) 12:04:15 434.975-435.025
CUBEBUG 2 25 Apr 11:56:45 12:01:30 66° 103° (ESE) 12:06:17 437.445
TIGRISAT 25 Apr 12:03:06 12:07:31 45° 262° (W) 12:12:02 435.000
Oscar 19 25 Apr 12:05:05 12:08:57 22° 44° (NE) 12:12:54 437.125/150
UNISAT 6 25 Apr 12:07:22 12:11:45 41° 263° (W) 12:16:13 437.425
NANOSAT C BR1 25 Apr 12:07:39 12:11:50 61° 256° (WSW) 12:16:05 145.865
GOMX 1 25 Apr 12:09:29 12:14:03 40° 300° (WNW) 12:18:53 467.674
AIST 1 25 Apr 12:10:16 12:14:27 50° 68° (ENE) 12:18:37
POPSAT HIP 1 25 Apr 12:10:45 12:14:56 58° 258° (WSW) 12:19:11 437.405
CUTE-I 25 Apr 12:14:50 12:17:12 13° 333° (NNW) 12:19:29 437.470
BEESAT 3 25 Apr 12:16:01 12:19:46 33° 229° (SW) 12:23:27 437.485
BEESAT 2 25 Apr 12:17:01 12:20:52 36° 228° (SW) 12:24:40 435.950
50 SAT 25 Apr 12:18:20 12:21:55 29° 93° (E) 12:25:31 437.505
YUBILEINY 25 Apr 12:19:47 12:28:30 69° 96° (E) 12:37:15 435.215
BRITE-PL 25 Apr 12:21:04 12:25:08 28° 306° (NW) 12:29:26 437.365/2234.400
ESTCUBE 1 25 Apr 12:22:18 12:25:43 21° 87° (E) 12:29:12 437.505/2401.250
UWE-3 25 Apr 12:23:31 12:28:15 86° 107° (ESE) 12:32:58 435.000/436.395/437.385
Cubesat XI-IV 25 Apr 12:24:32 12:26:36 12° 335° (NNW) 12:28:33 437.490
FUNcube-1 25 Apr 12:33:47 12:38:25 87° 107° (ESE) 12:43:03 145.935
PCSat 25 Apr 12:35:48 12:41:12 62° 334° (NNW) 12:46:38 145.827
BUGSAT 1 25 Apr 12:37:04 12:40:57 45° 260° (W) 12:44:53 437.445
UKube-1 25 Apr 12:39:44 12:44:04 63° 104° (ESE) 12:48:23 .
ITAMSAT 1 25 Apr 12:39:52 12:43:20 19° 39° (NE) 12:46:52 435.822/435.867
POLYITAN 1 25 Apr 12:40:54 12:44:49 35° 265° (W) 12:48:46 437.675
DUCHIFAT 1 25 Apr 12:42:13 12:46:07 34° 264° (W) 12:50:01 145.980
COMPASS 1 25 Apr 12:46:34 12:50:17 29° 303° (WNW) 12:53:56 437.405
DOVE 4 25 Apr 12:47:20 12:51:39 31° 305° (NW) 12:56:07 437.250
ANTELSAT 25 Apr 12:50:41 12:54:18 22° 273° (W) 12:57:56 437.575/2403.000
SPROUT 25 Apr 12:54:52 12:57:06 14° 82° (E) 12:59:27 437.525
HUMSAT D 25 Apr 12:56:05 13:00:28 80° 105° (ESE) 13:04:51 437.325/437.525
JAS-2 25 Apr 12:56:54 13:01:26 18° 21° (NNE) 13:05:50 435.910
ZACube-1 25 Apr 12:59:11 13:03:46 64° 292° (WNW) 13:08:20 437.345
Cosmos 2491 25 Apr 12:59:18 13:06:56 34° 282° (WNW) 13:14:25 435.465 / 435.565
Oscar 11 25 Apr 12:59:24 13:03:34 43° 298° (WNW) 13:07:41 145.826/435.025
QB50P1 25 Apr 13:00:04 13:03:40 26° 269° (W) 13:07:14 145.935-145.965
VELOX 1 25 Apr 13:02:33 13:06:56 58° 102° (ESE) 13:11:20 145.980
DELFI C3 25 Apr 13:05:54 13:09:47 42° 297° (WNW) 13:13:36 145.870
Gurwin Techsat 1B 25 Apr 13:07:39 13:11:42 23° 44° (NE) 13:15:49 435.225
CUBEBUG 1 25 Apr 13:08:34 13:12:41 40° 97° (E) 13:16:49 437.445
Cosmos 2504 25 Apr 13:10:02 13:16:43 26° 73° (ENE) 13:23:27 435.465 / 435.565
SEEDS 25 Apr 13:12:07 13:15:14 20° 311° (NW) 13:18:17 437.485
AIST 2 25 Apr 13:16:13 13:20:04 32° 230° (SW) 13:23:51 435.215
AO-7 25 Apr 13:17:29 13:24:14 29° 22° (NNE) 13:31:02 29.400- 29.500
AISAT 25 Apr 13:20:22 13:24:50 79° 107° (ESE) 13:29:19 437.250
CANX-2 25 Apr 13:20:30 13:23:10 16° 315° (NW) 13:25:44 2200.000
QB50P2 25 Apr 13:27:13 13:30:04 17° 275° (W) 13:32:51 145.880/145.840
HO-68 25 Apr 13:27:31 13:34:01 37° 316° (NW) 13:40:26 435.675
CUTE 1.7 + AOD 2 25 Apr 13:29:47 13:32:16 15° 316° (NW) 13:34:40 437.475
AAUSAT CUBESAT 2 25 Apr 13:29:49 13:32:46 18° 311° (NW) 13:35:39 437.432
DX 1 25 Apr 13:32:32 13:36:48 54° 296° (WNW) 13:41:04 434.975-435.025
SO-50 25 Apr 13:32:44 13:36:49 29° 126° (SE) 13:41:03 436.795
CINEMA 3 25 Apr 13:33:24 13:37:22 25° 309° (NW) 13:41:21 145.822/145.860
CUBEBUG 2 25 Apr 13:33:45 13:37:57 32° 304° (NW) 13:42:10 437.445
Oscar 19 25 Apr 13:42:27 13:47:36 67° 66° (ENE) 13:52:48 437.125/150
TIGRISAT 25 Apr 13:45:10 13:45:36 10° 285° (WNW) 13:45:50 435.000
NANOSAT C BR1 25 Apr 13:46:40 13:48:39 13° 279° (W) 13:50:31 145.865
AIST 1 25 Apr 13:48:11 13:51:59 31° 269° (W) 13:55:43
GOMX 1 25 Apr 13:48:40 13:51:11 14° 321° (NW) 13:53:41 467.674
POPSAT HIP 1 25 Apr 13:50:03 13:51:50 12° 280° (W) 13:53:27 437.405
50 SAT 25 Apr 13:52:59 13:56:59 53° 294° (WNW) 14:00:55 437.505
ESTCUBE 1 25 Apr 13:58:40 14:03:13 84° 290° (WNW) 14:07:43 437.505/2401.250
TISAT 1 25 Apr 13:59:56 14:03:49 33° 95° (E) 14:07:42 437.305
UWE-3 25 Apr 14:00:30 14:04:21 25° 308° (NW) 14:08:10 435.000/436.395/437.385
BRITE-PL 25 Apr 14:01:43 14:02:24 10° 328° (NNW) 14:02:59 437.365/2234.400
ITUPSAT 1 25 Apr 14:02:00 14:03:10 11° 77° (ENE) 14:04:33 437.325
FUNcube-1 25 Apr 14:10:34 14:14:20 25° 308° (NW) 14:18:01 145.935
UKube-1 25 Apr 14:16:12 14:20:00 30° 305° (NW) 14:23:46 .
ITAMSAT 1 25 Apr 14:16:55 14:21:57 53° 61° (ENE) 14:27:00 435.822/435.867
YUBILEINY 25 Apr 14:17:23 14:25:55 49° 302° (WNW) 14:34:24 435.215
PCSat 25 Apr 14:20:10 14:25:23 44° 359° (N) 14:30:37 145.827
HORYU 2 25 Apr 14:22:43 14:25:54 20° 46° (NE) 14:29:10 437.375
DOVE 4 25 Apr 14:26:29 14:28:12 12° 326° (NNW) 14:29:49 437.250
SPROUT 25 Apr 14:29:46 14:34:06 66° 104° (ESE) 14:38:25 437.525
BEESAT 25 Apr 14:31:32 14:34:44 18° 84° (E) 14:38:03 436.000
HUMSAT D 25 Apr 14:32:17 14:35:52 25° 307° (NW) 14:39:23 437.325/437.525
SWISSCUBE 25 Apr 14:33:55 14:37:21 20° 86° (E) 14:40:51 437.505
ZACube-1 25 Apr 14:36:14 14:39:25 19° 314° (NW) 14:42:33 437.345
Oscar 11 25 Apr 14:36:43 14:38:49 13° 320° (NW) 14:40:51 145.826/435.025
JAS-2 25 Apr 14:38:06 14:44:41 33° 45° (NE) 14:50:55 435.910
VELOX 1 25 Apr 14:39:22 14:43:21 33° 304° (WNW) 14:47:18 145.980
DELFI C3 25 Apr 14:42:22 14:44:02 12° 318° (NW) 14:45:35 145.870
CUBEBUG 1 25 Apr 14:45:00 14:49:08 43° 298° (WNW) 14:53:17 437.445
Gurwin Techsat 1B 25 Apr 14:45:42 14:50:59 70° 67° (ENE) 14:56:19 435.225
RS-15 25 Apr 14:55:22 15:03:40 27° 105° (ESE) 15:12:27 29.354- 29.394
GONETS M04 25 Apr 14:55:33 14:57:24 11° 53° (NE) 14:59:39
AISAT 25 Apr 14:57:23 15:01:05 26° 308° (NW) 15:04:44 437.250
Cosmos 2491 25 Apr 14:59:03 15:01:00 11° 308° (NW) 15:02:31 435.465 / 435.565
Cosmos 2504 25 Apr 15:00:07 15:08:56 71° 97° (E) 15:17:30 435.465 / 435.565
AO-7 25 Apr 15:07:42 15:15:37 54° 48° (NE) 15:23:38 29.400- 29.500
DX 1 25 Apr 15:09:37 15:12:18 16° 317° (NW) 15:14:53 434.975-435.025
CUBEBUG 2 25 Apr 15:11:50 15:13:28 12° 325° (NW) 15:14:59 437.445
SO-50 25 Apr 15:12:06 15:16:55 83° 150° (SSE) 15:21:53 436.795
HO-68 25 Apr 15:15:02 15:20:04 21° 342° (NNW) 15:25:00 435.675
Oscar 19 25 Apr 15:22:46 15:27:23 32° 268° (W) 15:32:01 437.125/150
50 SAT 25 Apr 15:28:47 15:31:02 14° 315° (NW) 15:33:12 437.505
CUTE-I 25 Apr 15:31:21 15:33:04 12° 23° (NNE) 15:34:53 437.470
TISAT 1 25 Apr 15:35:40 15:39:47 50° 296° (WNW) 15:43:55 437.305
ESTCUBE 1 25 Apr 15:36:06 15:39:35 22° 310° (NW) 15:43:00 437.505/2401.250
ITUPSAT 1 25 Apr 15:37:44 15:42:23 47° 100° (E) 15:47:00 437.325
Cubesat XI-IV 25 Apr 15:40:24 15:42:30 12° 26° (NNE) 15:44:42 437.490
ISS 25 Apr 15:41:06 15:43:02 15° 168° (SSE) 15:44:59 145.825
UKube-1 25 Apr 15:54:18 15:55:00 10° 327° (NNW) 15:55:36 .
ITAMSAT 1 25 Apr 15:56:45 16:01:40 41° 263° (W) 16:06:34 435.822/435.867
HORYU 2 25 Apr 15:57:26 16:01:55 69° 68° (ENE) 16:06:26 437.375
PCSat 25 Apr 16:04:12 16:09:36 59° 23° (NNE) 16:15:00 145.827
KKS-1 25 Apr 16:04:49 16:08:29 24° 90° (E) 16:12:12 437.445
SPROUT 25 Apr 16:06:13 16:09:56 28° 305° (NW) 16:13:38 437.525
BEESAT 25 Apr 16:08:38 16:13:26 77° 106° (ESE) 16:18:14 436.000
SWISSCUBE 25 Apr 16:11:09 16:15:59 84° 109° (ESE) 16:20:46 437.505
VELOX 1 25 Apr 16:17:28 16:18:48 11° 325° (NW) 16:20:04 145.980
YUBILEINY 25 Apr 16:18:35 16:25:25 23° 332° (NNW) 16:32:07 435.215
JAS-2 25 Apr 16:21:12 16:29:01 78° 67° (ENE) 16:36:19 435.910
CUBEBUG 1 25 Apr 16:22:28 16:24:36 13° 320° (NW) 16:26:40 437.445
Gurwin Techsat 1B 25 Apr 16:26:42 16:31:27 31° 268° (W) 16:36:10 435.225
GONETS M04 25 Apr 16:43:57 16:51:28 34° 79° (E) 16:59:09
SO-50 25 Apr 16:52:57 16:57:46 58° 352° (N) 17:02:42 436.795
Cosmos 2504 25 Apr 16:54:25 17:02:58 48° 302° (WNW) 17:11:12 435.465 / 435.565
STARS 25 Apr 16:59:18 17:03:33 42° 98° (E) 17:07:49 437.465
AO-7 25 Apr 17:00:09 17:08:25 66° 253° (WSW) 17:16:43 29.400- 29.500
HO-68 25 Apr 17:00:54 17:05:30 19° 8° (N) 17:10:07 435.675
CUSAT 1 25 Apr 17:06:22 17:08:35 14° 71° (ENE) 17:11:15 437.405
CUTE-I 25 Apr 17:07:19 17:11:37 26° 47° (NE) 17:15:59 437.470
TISAT 1 25 Apr 17:12:26 17:14:47 14° 317° (NW) 17:17:03 437.305
ISS 25 Apr 17:16:29 17:18:34 16° 188° (S) 17:20:38 145.825
